This is the latest recevied weather packets stored in our database for station/object N9DMT-13. If no packets are shown the sender has not sent any weather packets the latest 1 day(s).
| Time | Temp. | Humidity | Pressure | Rain* | Wind** | Luminosity | Snow |
|---|---|---|---|---|---|---|---|
| 1778099240 | 8.89° C | 44% | 983.4 hPa | 0 mm | - | - | - |
| 1778098639 | 8.89° C | 44% | 983.6 hPa | 0 mm | - | - | - |
| 1778097135 | 8.89° C | 45% | 983.7 hPa | 0 mm | - | - | - |
| 1778094428 | 8.33° C | 45% | 983.5 hPa | 0 mm | - | - | - |
| 1778093225 | 8.89° C | 45% | 983.4 hPa | 0 mm | - | - | - |
| 1778092924 | 8.89° C | 45% | 983.3 hPa | 0 mm | - | - | - |
| 1778091119 | 10° C | 46% | 983.2 hPa | 0 mm | - | - | - |
| 1778090818 | 9.44° C | 45% | 983.3 hPa | 0 mm | - | - | - |
| 1778090517 | 10° C | 43% | 983.3 hPa | 0 mm | - | - | - |
| 1778090214 | 10° C | 44% | 983.2 hPa | 0 mm | - | - | - |
| 1778088107 | 10° C | 43% | 983.5 hPa | 0 mm | - | - | - |
| 1778087806 | 9.44° C | 47% | 983.3 hPa | 0 mm | - | - | - |
| 1778087505 | 10° C | 45% | 983.3 hPa | 0 mm | - | - | - |
| 1778087204 | 10.56° C | 43% | 983.5 hPa | 0 mm | - | - | - |
| 1778086302 | 10° C | 43% | 983.5 hPa | 0 mm | - | - | - |
| 1778085400 | 10° C | 43% | 983.4 hPa | 0 mm | - | - | - |
| 1778085099 | 10° C | 45% | 983.3 hPa | 0 mm | - | - | - |
| 1778083896 | 8.89° C | 48% | 983.3 hPa | 0 mm | - | - | - |
| 1778083595 | 10° C | 43% | 983.3 hPa | 0 mm | - | - | - |
| 1778083294 | 9.44° C | 50% | 983.1 hPa | 0 mm | - | - | - |
| 1778082993 | 8.89° C | 46% | 983.3 hPa | 0 mm | - | - | - |
| 1778082090 | 9.44° C | 47% | 983.2 hPa | 0 mm | - | - | - |
| 1778081789 | 9.44° C | 46% | 983.3 hPa | 0 mm | - | - | - |
| 1778081488 | 8.89° C | 49% | 983.3 hPa | 0 mm | - | - | - |
| 1778079683 | 8.89° C | 45% | 983.3 hPa | 0 mm | - | - | - |
* Rain latest hour (hover to see other rain measurements)
** Current wind speed in m/s (hover to see current wind gust speed)